Vorticity
1 7 2 7 8 5 5 1 0 0 5 6 7 6 7 10 11 8 8 7 11 11 7 5 9 7 7 4 5 8 6 5 4 3 3 3 2 -10 -3 4 10 7 5 5 7 4 4 4 5
9 2 3 10 6 2 0 7 6 6 8 5 7 7 9 5 9 8 7 10 11 8 8 8 6 8 6 3 5 5 4 3 2 2 1 2 5 7 13 6 6 6 9 7 6 6 4 4 5
1 1 3 6 5 4 1 5 6 11 10 11 2 -0 8 6 6 7 7 8 10 7 11 8 6 6 5 4 5 4 1 0 0 1 4 5 3 3 13 6 5 6 8 9 6 7 6 4 5
1 2 4 2 -2 1 5 5 7 8 6 2 1 6 8 5 11 4 4 8 11 13 9 11 8 6 7 10 12 10 9 11 11 10 9 8 8 5 5 6 8 17 -1 7 7 7 7 5 5
9 9 9 4 -1 -0 4 4 -0 10 6 7 6 3 5 7 6 11 5 7 11 11 10 8 11 10 8 7 6 8 8 8 9 10 8 7 7 8 6 4 4 7 16 3 10 8 6 7 3
10 3 4 1 -1 -1 5 8 11 5 8 8 11 13 8 9 7 10 5 4 10 9 6 8 7 9 8 6 7 7 8 7 7 10 10 7 5 6 7 6 4 4 5 9 -4 8 8 7 5
0 -2 10 3 7 4 5 6 12 9 2 6 9 4 1 3 5 16 9 2 9 10 7 5 7 5 6 7 6 4 5 5 5 7 10 7 5 6 8 8 5 2 3 6 11 9 5 10 8
7 9 9 15 5 7 -1 7 4 0 1 2 5 10 7 10 6 6 15 3 5 8 9 9 8 7 8 7 7 5 5 2 3 3 5 7 5 7 5 9 9 5 3 2 4 6 11 3 8
17 9 6 5 9 6 9 4 7 3 6 6 9 -2 3 7 9 10 22 9 4 7 11 7 9 6 6 9 7 6 6 5 4 4 4 5 8 3 7 7 10 9 5 4 5 3 10 -7 21
9 -2 -1 3 9 5 5 4 3 5 9 8 4 4 5 6 13 32 47 8 3 5 8 11 13 10 9 9 8 9 9 8 6 6 6 7 3 4 7 9 8 9 9 5 4 5 4 9 -11
3 2 1 3 7 3 4 -1 8 6 4 9 4 4 3 4 9 35 31 3 5 6 6 8 10 10 11 11 10 9 9 8 8 7 7 8 6 5 5 9 8 7 9 10 9 6 4 1 19
5 1 3 3 2 3 7 6 5 2 0 2 4 3 1 6 2 11 7 10 4 5 1 6 7 7 8 13 8 10 8 9 6 9 5 3 8 6 -0 4 6 7 3 4 8 7 4 9 6
4 4 5 7 6 4 2 24 3 2 2 7 7 3 -0 1 4 6 10 9 5 6 4 2 4 4 3 5 8 11 12 8 7 7 11 8 10 12 6 5 5 4 8 6 4 5 6 4 3
4 4 4 5 2 5 6 5 5 4 4 8 7 4 4 5 3 2 11 14 15 7 6 5 3 2 5 6 8 7 7 8 8 9 10 8 9 7 33 -18 6 6 3 4 3 -0 -1 -7 -1
4 3 3 2 3 5 5 0 1 10 11 7 4 5 2 3 6 3 9 12 10 11 13 6 3 3 2 6 5 6 8 7 7 6 7 7 10 11 10 12 -3 3 0 9 5 6 9 12 5
4 3 5 4 2 6 4 -2 3 11 10 6 4 4 3 2 7 8 3 15 10 24 36 5 7 4 3 2 2 11 12 9 5 2 3 3 2 3 6 10 10 12 8 3 4 8 4 6 1
4 6 6 3 3 3 5 3 5 5 8 7 5 5 3 5 6 6 6 15 13 4 26 20 6 5 6 2 3 6 8 8 7 6 6 9 4 8 7 4 5 8 10 8 11 6 7 8 4
4 6 5 4 2 3 2 3 4 6 7 7 6 6 7 8 14 7 5 12 10 11 17 -1 18 7 1 5 -0 3 7 6 7 -1 11 13 8 6 7 7 5 5 8 10 10 8 9 11 7
6 5 4 3 4 4 2 4 4 6 7 6 9 6 13 11 14 5 5 14 2 4 15 4 12 24 8 5 2 3 4 6 11 11 5 6 17 22 26 17 13 12 13 13 5 9 9 7 11
5 7 6 3 3 5 4 5 4 6 8 6 7 16 13 18 5 11 10 8 4 5 16 31 33 47 6 5 4 3 1 4 11 6 8 17 10 6 9 14 15 13 20 10 14 12 11 5 8
6 5 4 5 6 5 5 8 1 5 8 8 9 9 7 -1 -5 -0 10 2 6 3 22 40 20 6 4 -1 -1 4 6 10 6 3 10 14 10 7 12 18 8 13 10 13 16 10 12 15 5
6 9 9 7 7 6 4 7 -0 7 7 10 6 8 0 -3 9 0 8 5 2 5 -1 31 12 1 6 10 7 5 12 10 5 7 11 17 16 9 16 10 12 15 17 23 16 8 9 33 11
9 6 6 5 5 5 9 2 5 7 7 10 2 6 7 8 1 7 18 23 7 5 6 18 -1 -1 2 2 7 13 12 5 6 8 10 12 7 8 11 14 13 17 12 22 18 10 -2 38 14
8 9 7 6 4 5 2 4 14 -2 6 9 6 8 9 6 14 16 -3 31 10 5 6 7 8 11 7 4 13 14 6 4 3 8 16 4 15 11 8 9 10 14 13 11 21 9 13 14 13
3 4 8 13 17 17 -5 5 7 7 10 13 12 8 7 11 16 7 6 9 11 6 11 6 7 5 21 22 13 3 3 6 7 13 14 9 5 9 14 10 15 18 15 12 21 20 14 12 24
5 4 -2 4 10 15 1 8 6 10 8 14 11 9 8 13 8 1 10 10 15 9 21 4 9 18 21 12 6 10 10 8 12 11 13 16 11 14 11 10 13 11 13 16 19 14 15 10 1
5 6 5 2 8 7 12 4 18 13 9 12 15 4 10 9 3 6 6 10 11 27 8 3 11 14 5 -1 5 7 6 7 8 9 14 11 11 10 25 14 18 22 13 13 15 21 15 21 15
11 8 13 15 9 3 12 8 12 2 12 13 14 8 11 10 3 8 8 5 12 25 11 0 13 4 3 -4 -7 3 4 5 11 9 14 13 10 9 14 7 5 13 15 10 14 15 12 10 10
14 13 12 -2 -13 0 5 7 -12 3 6 11 15 12 12 6 8 2 8 8 11 23 7 0 5 8 4 3 4 8 4 3 10 8 12 15 9 7 13 11 10 5 19 17 13 12 12 16 14
10 15 9 10 11 28 1 -1 7 9 4 8 14 15 14 13 5 12 20 17 17 24 60 4 3 10 9 8 8 12 6 4 7 8 8 16 10 8 6 3 13 16 8 11 8 26 14 13 15
Height
5924 5923 5923 5922 5926 5924 5923 5922 5919 5918 5917 5916 5914 5914 5914 5913 5911 5913 5910 5910 5910 5910 5909 5909 5910 5909 5909 5909 5910 5911 5911 5912 5913 5915 5914 5915 5916 5915 5916 5916 5918 5917 5917 5918 5921 5922 5924 5924 5926
5925 5924 5924 5924 5929 5926 5924 5923 5921 5921 5920 5919 5918 5917 5916 5914 5913 5913 5911 5909 5909 5908 5908 5908 5909 5909 5910 5911 5912 5912 5913 5913 5913 5915 5915 5915 5915 5915 5914 5916 5917 5918 5918 5919 5920 5922 5924 5924 5926
5926 5926 5927 5927 5928 5928 5927 5926 5925 5923 5921 5919 5919 5919 5918 5916 5913 5913 5911 5909 5908 5907 5908 5909 5910 5910 5911 5912 5913 5913 5913 5913 5913 5914 5914 5914 5915 5914 5914 5914 5916 5917 5918 5918 5919 5922 5923 5924 5926
5926 5928 5930 5930 5929 5929 5928 5927 5925 5923 5921 5920 5919 5919 5918 5916 5914 5913 5911 5910 5909 5909 5908 5909 5909 5909 5910 5912 5912 5912 5913 5912 5912 5912 5912 5913 5913 5913 5914 5913 5915 5915 5917 5918 5918 5920 5922 5923 5925
5927 5929 5932 5932 5930 5930 5930 5929 5927 5925 5923 5921 5921 5919 5919 5917 5914 5912 5912 5910 5910 5909 5907 5907 5908 5908 5910 5910 5910 5909 5910 5910 5910 5910 5910 5911 5911 5912 5912 5912 5914 5915 5917 5918 5918 5919 5920 5922 5923
5929 5931 5936 5935 5932 5931 5931 5930 5928 5926 5924 5923 5921 5919 5917 5916 5915 5912 5910 5910 5909 5907 5905 5904 5905 5906 5907 5909 5910 5909 5910 5910 5909 5909 5909 5908 5909 5910 5911 5911 5913 5913 5915 5917 5918 5918 5918 5920 5921
5931 5933 5934 5934 5933 5932 5931 5930 5928 5927 5925 5924 5922 5918 5916 5914 5913 5911 5909 5908 5907 5906 5904 5904 5904 5904 5906 5908 5908 5908 5909 5909 5909 5909 5909 5909 5908 5908 5908 5909 5911 5912 5914 5915 5916 5917 5917 5917 5919
5931 5934 5935 5935 5935 5934 5933 5932 5930 5928 5926 5925 5922 5918 5915 5913 5911 5909 5907 5905 5904 5905 5905 5904 5904 5903 5905 5906 5907 5907 5907 5908 5908 5909 5909 5909 5908 5907 5907 5907 5909 5910 5911 5913 5914 5914 5914 5915 5916
5932 5937 5935 5936 5935 5935 5934 5933 5931 5928 5927 5926 5923 5919 5916 5912 5907 5905 5902 5902 5902 5903 5904 5903 5903 5901 5903 5904 5905 5905 5905 5906 5907 5908 5908 5908 5907 5906 5905 5906 5908 5908 5910 5911 5912 5913 5913 5910 5914
5933 5936 5935 5935 5935 5934 5934 5933 5932 5930 5927 5925 5922 5919 5915 5910 5904 5897 5894 5898 5900 5901 5901 5901 5900 5900 5901 5901 5902 5902 5903 5903 5904 5906 5906 5906 5906 5905 5904 5904 5905 5906 5908 5909 5910 5911 5911 5911 5910
5933 5935 5934 5935 5935 5934 5933 5933 5931 5929 5927 5925 5922 5918 5915 5910 5906 5900 5898 5897 5898 5899 5899 5899 5899 5898 5899 5899 5899 5899 5900 5900 5900 5902 5904 5903 5903 5902 5902 5902 5902 5904 5905 5906 5908 5909 5909 5910 5909
5933 5933 5934 5935 5934 5934 5934 5933 5931 5929 5927 5926 5922 5919 5915 5912 5909 5905 5904 5901 5899 5898 5898 5898 5898 5897 5897 5899 5896 5896 5896 5896 5897 5899 5900 5899 5900 5900 5901 5900 5900 5900 5902 5905 5906 5906 5907 5908 5909
5932 5933 5934 5934 5934 5934 5934 5933 5930 5929 5927 5926 5923 5919 5916 5912 5910 5909 5906 5904 5901 5900 5899 5896 5896 5895 5896 5896 5897 5896 5895 5894 5895 5896 5896 5896 5896 5897 5897 5898 5898 5899 5899 5901 5904 5904 5905 5906 5907
5932 5932 5932 5933 5934 5934 5933 5933 5931 5930 5927 5925 5922 5919 5916 5913 5911 5908 5906 5904 5901 5900 5899 5898 5895 5895 5895 5895 5897 5896 5895 5894 5893 5892 5893 5892 5894 5894 5892 5890 5891 5894 5895 5898 5900 5901 5902 5902 5902
5931 5931 5931 5932 5933 5933 5933 5932 5931 5930 5927 5925 5922 5919 5916 5913 5910 5908 5905 5904 5902 5899 5898 5897 5896 5893 5894 5894 5895 5895 5895 5894 5892 5891 5890 5891 5891 5892 5890 5889 5889 5891 5891 5892 5895 5897 5897 5897 5897
5931 5931 5932 5932 5932 5932 5933 5933 5931 5929 5928 5924 5922 5918 5915 5913 5910 5908 5904 5902 5900 5897 5894 5894 5895 5894 5892 5893 5893 5893 5893 5893 5891 5890 5890 5889 5888 5887 5887 5887 5887 5887 5887 5887 5890 5891 5893 5893 5893
5930 5932 5931 5931 5931 5930 5931 5931 5930 5929 5927 5924 5920 5917 5915 5913 5910 5907 5904 5902 5899 5896 5893 5893 5893 5893 5892 5890 5890 5890 5890 5890 5889 5889 5887 5887 5885 5884 5883 5883 5882 5882 5883 5883 5884 5885 5886 5888 5889
5929 5929 5929 5929 5931 5930 5929 5929 5928 5928 5926 5923 5919 5916 5915 5911 5909 5906 5903 5899 5896 5894 5892 5891 5890 5889 5889 5890 5887 5887 5888 5887 5887 5886 5885 5884 5882 5879 5877 5877 5876 5876 5877 5878 5879 5880 5882 5883 5885
5926 5927 5926 5928 5929 5928 5927 5926 5926 5926 5924 5921 5917 5916 5913 5910 5908 5906 5903 5898 5893 5890 5889 5887 5883 5884 5885 5886 5885 5884 5885 5885 5885 5884 5882 5879 5876 5873 5871 5870 5870 5870 5870 5870 5872 5875 5876 5877 5878
5924 5924 5924 5926 5926 5927 5926 5925 5923 5922 5921 5919 5915 5913 5912 5909 5906 5904 5901 5897 5891 5888 5885 5880 5879 5878 5881 5885 5885 5884 5883 5883 5882 5880 5877 5874 5870 5867 5865 5864 5864 5864 5864 5864 5864 5867 5869 5871 5872
5921 5922 5923 5923 5924 5923 5924 5922 5922 5920 5918 5917 5914 5911 5910 5908 5905 5903 5899 5895 5890 5886 5883 5877 5876 5879 5882 5883 5883 5883 5881 5880 5879 5877 5873 5869 5867 5865 5862 5860 5859 5858 5857 5857 5858 5859 5861 5863 5866
5918 5919 5920 5921 5921 5922 5922 5923 5918 5919 5916 5915 5912 5910 5907 5905 5903 5899 5896 5893 5889 5885 5884 5881 5880 5880 5880 5882 5881 5880 5879 5878 5877 5875 5871 5865 5862 5860 5858 5856 5854 5852 5851 5851 5852 5853 5853 5854 5859
5914 5915 5917 5917 5918 5919 5918 5919 5919 5916 5915 5913 5909 5907 5905 5902 5899 5896 5892 5888 5886 5883 5884 5883 5882 5879 5879 5880 5879 5877 5877 5877 5875 5872 5868 5863 5859 5856 5854 5853 5851 5848 5846 5846 5846 5847 5847 5848 5852
5910 5912 5913 5914 5915 5916 5915 5915 5917 5914 5912 5909 5906 5903 5902 5899 5896 5893 5889 5884 5882 5881 5881 5880 5879 5878 5878 5878 5877 5877 5877 5876 5874 5870 5866 5861 5856 5853 5851 5850 5847 5845 5842 5841 5841 5842 5843 5845 5847
5907 5908 5911 5913 5912 5914 5910 5911 5912 5909 5907 5906 5903 5899 5898 5895 5894 5891 5886 5883 5882 5879 5878 5878 5877 5877 5875 5874 5875 5876 5876 5874 5871 5867 5862 5859 5855 5851 5847 5846 5845 5841 5839 5838 5836 5836 5840 5842 5843
5902 5904 5907 5910 5912 5911 5905 5906 5906 5904 5902 5901 5898 5895 5894 5893 5891 5888 5884 5880 5878 5877 5875 5875 5875 5874 5874 5875 5876 5875 5875 5873 5868 5864 5859 5855 5853 5849 5845 5844 5842 5839 5837 5836 5834 5833 5836 5839 5840
5897 5899 5902 5903 5904 5904 5906 5901 5901 5899 5898 5896 5894 5891 5891 5890 5888 5885 5883 5880 5876 5874 5873 5873 5873 5873 5875 5876 5876 5875 5873 5870 5865 5861 5856 5854 5851 5846 5842 5841 5840 5838 5836 5835 5834 5833 5834 5835 5837
5892 5894 5896 5897 5900 5901 5902 5899 5900 5896 5895 5893 5890 5888 5888 5887 5886 5883 5881 5877 5875 5873 5872 5873 5875 5876 5876 5875 5874 5874 5872 5867 5863 5859 5855 5852 5850 5847 5843 5842 5841 5838 5835 5834 5834 5834 5834 5835 5836
5886 5887 5890 5893 5894 5898 5900 5900 5894 5893 5892 5889 5886 5886 5885 5884 5883 5880 5877 5874 5871 5870 5869 5869 5872 5873 5873 5872 5872 5871 5868 5866 5862 5858 5855 5851 5849 5847 5844 5843 5842 5839 5836 5834 5833 5832 5832 5833 5834
5880 5882 5883 5887 5891 5890 5892 5896 5891 5890 5889 5887 5884 5884 5883 5881 5879 5876 5871 5866 5865 5863 5862 5865 5867 5870 5870 5870 5869 5868 5866 5864 5860 5857 5854 5850 5848 5846 5845 5844 5842 5839 5837 5835 5833 5831 5831 5831 5832